Location: Unspecified
(0.0000°N, 0.0000°E)
Time: 21:07:40
(UTC+00:00)

SKYMED 3 - Visible Passes

Search period start: 22 June 2018 00:00
Search period end: 02 July 2018 00:00
Orbit: 621 x 623 km, 97.9° (Epoch: 22 June)

Date Brightness Start Highest point End Pass type
(mag) Time Alt. Az. Time Alt. Az. Time Alt. Az.
22 Jun 6.5 05:13:32 10° SE 05:17:29 34° ENE 05:21:24 10° NNE visible
23 Jun 5.2 05:31:10 10° SSE 05:35:28 64° ENE 05:39:45 10° N visible
26 Jun 7.7 04:50:52 10° ESE 04:53:31 16° ENE 04:56:10 10° NE visible
26 Jun 7.8 18:35:45 10° NW 18:38:20 16° WNW 18:40:55 10° WSW visible
27 Jun 6.9 05:07:46 10° SE 05:11:30 28° ENE 05:15:12 10° NNE visible
28 Jun 5.6 05:25:15 10° SSE 05:29:28 51° ENE 05:33:40 10° N visible
01 Jul 7.9 04:45:29 10° ESE 04:47:31 13° ENE 04:49:32 10° NE visible
01 Jul 7.7 18:29:17 10° NNW 18:32:19 19° WNW 18:35:23 10° WSW visible
